Colby, KS

6:39 PM CST on November 13, 2019 (GMT -0600)
Shaltz

Weather History for KCBK - September, 2019

Change the Weather History Date:

Sunday, September 22, 2019

  Actual Average (WUND) Record (WUND)
Temperature  
Mean Temperature 60 °F -  
Max Temperature 73 °F - - (-1)
Min Temperature 48 °F - - (-1)
Degree Days  
Heating Degree Days 4    
Growing Degree Days 10 (Base 50)    
Moisture  
Dew Point 46 °F    
Average Humidity 64    
Maximum Humidity 100    
Minimum Humidity 31    
Precipitation  
Precipitation 0.00 in - - ()
Sea Level Pressure  
Sea Level Pressure 30.05 in    
Wind  
Wind Speed 11 mph (NNW)    
Max Wind Speed 24 mph    
Max Gust Speed 34 mph    
Visibility 10 miles    
Events      
Averages and records for this station are not official NWS values.
T = Trace of Precipitation, MM = Missing Value Source: NWS Daily Summary

Daily Weather History Graph

Daily Weather History Graph

Search for Another Location

Airport or City:

Astronomy

Sep. 22, 2019 Rise Set
Actual Time 7:31 AM CDT 7:41 PM CDT
Civil Twilight 7:04 AM CDT 8:08 PM CDT
Nautical Twilight 6:33 AM CDT 8:39 PM CDT
Astronomical Twilight 6:01 AM CDT 9:11 PM CDT
Moon 12:24 AM CDT (9/22) 3:37 PM CDT (9/22)
Length of Visible Light 13h 03m
Length of Day
12h 09m
Last Quarter, 44% of the Moon is Illuminated
Sep 22
Last Quarter
Sep 28
New
Oct 5
First Quarter
Oct 13
Full
Oct 21
Last Quarter

Hourly Weather History & Observations

Time (CDT) Temp. Dew Point Humidity Pressure Visibility Wind Dir Wind Speed Gust Speed Precip Events Conditions
12:15 AM 64.4 °F 35.6 °F 34% 29.91 in 10.0 mi NNE 10.4 mph - N/A   Scattered Clouds
12:35 AM 62.6 °F 37.4 °F 39% 29.92 in 10.0 mi North 19.6 mph 34.5 mph N/A   Mostly Cloudy
12:55 AM 55.4 °F 44.6 °F 67% 29.95 in 5.0 mi North 20.7 mph 28.8 mph N/A   Overcast
1:15 AM 53.6 °F 48.2 °F 82% 29.95 in 10.0 mi North 18.4 mph 26.5 mph N/A   Overcast
1:35 AM 53.6 °F 48.2 °F 82% 29.96 in 5.0 mi North 18.4 mph - N/A   Overcast
1:55 AM 53.6 °F 50.0 °F 88% 29.98 in 10.0 mi North 24.2 mph 32.2 mph N/A   Overcast
2:15 AM 53.6 °F 48.2 °F 82% 30.01 in 10.0 mi North 21.9 mph 29.9 mph N/A   Overcast
2:35 AM 53.6 °F 50.0 °F 88% 30.00 in 10.0 mi North 20.7 mph 28.8 mph N/A   Overcast
2:55 AM 53.6 °F 50.0 °F 88% 30.01 in 10.0 mi North 20.7 mph 31.1 mph N/A   Overcast
3:15 AM 53.6 °F 50.0 °F 88% 30.00 in 10.0 mi North 21.9 mph 26.5 mph N/A   Overcast
3:35 AM 53.6 °F 50.0 °F 88% 29.99 in 10.0 mi North 19.6 mph 27.6 mph N/A   Overcast
3:55 AM 51.8 °F 50.0 °F 94% 30.00 in 10.0 mi North 17.3 mph 20.7 mph N/A   Overcast
4:15 AM 53.6 °F 50.0 °F 88% 30.00 in 10.0 mi North 17.3 mph 21.9 mph N/A   Overcast
4:35 AM 53.6 °F 50.0 °F 88% 30.01 in 10.0 mi North 16.1 mph 20.7 mph N/A   Overcast
4:55 AM 51.8 °F 50.0 °F 94% 30.02 in 10.0 mi North 16.1 mph 19.6 mph N/A   Overcast
5:15 AM 51.8 °F 50.0 °F 94% 30.02 in 10.0 mi North 15.0 mph 20.7 mph N/A   Overcast
5:35 AM 51.8 °F 50.0 °F 94% 30.03 in 10.0 mi North 17.3 mph 20.7 mph N/A   Overcast
5:55 AM 51.8 °F 50.0 °F 94% 30.04 in 10.0 mi North 10.4 mph - N/A   Overcast
6:15 AM 51.8 °F 50.0 °F 94% 30.06 in 10.0 mi North 10.4 mph - N/A   Overcast
6:35 AM 51.8 °F 50.0 °F 94% 30.04 in 10.0 mi NNE 9.2 mph - N/A   Overcast
6:55 AM 51.8 °F 50.0 °F 94% 30.04 in 10.0 mi NNE 8.1 mph - N/A   Scattered Clouds
7:15 AM 50.0 °F 50.0 °F 100% 30.05 in 10.0 mi North 4.6 mph - N/A   Clear
7:35 AM 50.0 °F 50.0 °F 100% 30.04 in 10.0 mi ENE 4.6 mph - N/A   Clear
7:55 AM 50.0 °F 50.0 °F 100% 30.04 in 10.0 mi Calm Calm - N/A   Clear
8:15 AM 48.2 °F 48.2 °F 100% 30.04 in 10.0 mi Calm Calm - N/A   Clear
8:35 AM 51.8 °F 51.8 °F 100% 30.03 in 10.0 mi Calm Calm - N/A   Clear
8:55 AM 53.6 °F 48.2 °F 82% 30.05 in 10.0 mi South 3.5 mph - N/A   Clear
9:35 AM 55.4 °F 46.4 °F 72% 30.07 in 10.0 mi North 5.8 mph - N/A   Clear
9:55 AM 57.2 °F 46.4 °F 67% 30.08 in 10.0 mi NNW 5.8 mph - N/A   Clear
10:15 AM 59.0 °F 46.4 °F 63% 30.09 in 10.0 mi NNW 8.1 mph - N/A   Clear
10:35 AM 59.0 °F 46.4 °F 63% 30.10 in 10.0 mi WNW 4.6 mph - N/A   Clear
10:55 AM 60.8 °F 44.6 °F 55% 30.10 in 10.0 mi NW 5.8 mph - N/A   Clear
11:15 AM 60.8 °F 44.6 °F 55% 30.09 in 10.0 mi NW 5.8 mph - N/A   Clear
11:35 AM 62.6 °F 46.4 °F 55% 30.09 in 10.0 mi NNW 8.1 mph - N/A   Clear
11:55 AM 64.4 °F 46.4 °F 52% 30.09 in 10.0 mi WNW 5.8 mph - N/A   Clear
12:15 PM 64.4 °F 46.4 °F 52% 30.09 in 10.0 mi NNW 5.8 mph - N/A   Clear
12:35 PM 66.2 °F 46.4 °F 49% 30.09 in 10.0 mi North 3.5 mph - N/A   Clear
12:55 PM 68.0 °F 46.4 °F 46% 30.09 in 10.0 mi North 5.8 mph - N/A   Clear
1:15 PM 68.0 °F 44.6 °F 43% 30.09 in 10.0 mi West 3.5 mph - N/A   Clear
1:35 PM 68.0 °F 44.6 °F 43% 30.08 in 10.0 mi NW 3.5 mph - N/A   Clear
1:55 PM 69.8 °F 44.6 °F 40% 30.08 in 10.0 mi West 5.8 mph - N/A   Clear
2:15 PM 69.8 °F 44.6 °F 40% 30.07 in 10.0 mi Calm Calm - N/A   Clear
2:55 PM 69.8 °F 42.8 °F 38% 30.06 in 10.0 mi Calm Calm - N/A   Clear
3:15 PM 71.6 °F 42.8 °F 35% 30.05 in 10.0 mi SW 5.8 mph - N/A   Scattered Clouds
3:35 PM 71.6 °F 42.8 °F 35% 30.04 in 10.0 mi Calm Calm - N/A   Scattered Clouds
3:55 PM 73.4 °F 42.8 °F 33% 30.04 in 10.0 mi SW 5.8 mph - N/A   Clear
4:35 PM 73.4 °F 42.8 °F 33% 30.04 in 10.0 mi NW 3.5 mph - N/A   Scattered Clouds
4:55 PM 73.4 °F 42.8 °F 33% 30.04 in 10.0 mi WSW 6.9 mph - N/A   Clear
5:15 PM 73.4 °F 41.0 °F 31% 30.04 in 10.0 mi SW 5.8 mph - N/A   Scattered Clouds
5:35 PM 73.4 °F 41.0 °F 31% 30.04 in 10.0 mi SSW 8.1 mph - N/A   Clear
5:55 PM 73.4 °F 41.0 °F 31% 30.04 in 10.0 mi WSW 3.5 mph - N/A   Clear
6:15 PM 71.6 °F 41.0 °F 33% 30.04 in 10.0 mi SSW 3.5 mph - N/A   Clear
6:35 PM 73.4 °F 41.0 °F 31% 30.04 in 10.0 mi South 3.5 mph - N/A   Scattered Clouds
6:55 PM 71.6 °F 42.8 °F 35% 30.04 in 10.0 mi SSW 3.5 mph - N/A   Clear
7:15 PM 69.8 °F 44.6 °F 40% 30.05 in 10.0 mi Calm Calm - N/A   Clear
7:35 PM 68.0 °F 44.6 °F 43% 30.05 in 10.0 mi South 3.5 mph - N/A   Clear
7:55 PM 64.4 °F 46.4 °F 52% 30.06 in 10.0 mi SE 3.5 mph - N/A   Clear
8:15 PM 62.6 °F 46.4 °F 55% 30.06 in 10.0 mi South 3.5 mph - N/A   Clear
8:35 PM 60.8 °F 46.4 °F 59% 30.07 in 10.0 mi Calm Calm - N/A   Clear
8:55 PM 59.0 °F 48.2 °F 67% 30.07 in 10.0 mi SSE 4.6 mph - N/A   Clear
9:15 PM 59.0 °F 46.4 °F 63% 30.07 in 10.0 mi SSE 3.5 mph - N/A   Clear
9:35 PM 59.0 °F 46.4 °F 63% 30.08 in 10.0 mi Calm Calm - N/A   Clear
9:55 PM 60.8 °F 46.4 °F 59% 30.09 in 10.0 mi South 3.5 mph - N/A   Clear
10:15 PM 57.2 °F 46.4 °F 67% 30.09 in 10.0 mi SSW 3.5 mph - N/A   Clear
10:35 PM 57.2 °F 46.4 °F 67% 30.09 in 10.0 mi Calm Calm - N/A   Clear
10:55 PM 53.6 °F 46.4 °F 77% 30.10 in 10.0 mi SE 5.8 mph - N/A   Clear
11:15 PM 57.2 °F 46.4 °F 67% 30.10 in 10.0 mi South 6.9 mph - N/A   Clear
11:35 PM 57.2 °F 46.4 °F 67% 30.11 in 10.0 mi South 8.1 mph - N/A   Clear
11:55 PM 59.0 °F 46.4 °F 63% 30.11 in 10.0 mi South 8.1 mph - N/A   Clear